Change the Weather History Date:

Monday, July 22, 2013

  Actual Average Record
Temperature  
Mean Temperature 82 °F -  
Max Temperature 91 °F 88 °F 102 °F (2011)
Min Temperature 73 °F 66 °F 54 °F (1950)
Cooling Degree Days 17    
Growing Degree Days 32 (Base 50)    
Moisture  
Dew Point 75 °F    
Average Humidity 89    
Maximum Humidity 100    
Minimum Humidity 59    
Precipitation  
Precipitation 0.00 in - - ()
Sea Level Pressure  
Sea Level Pressure 29.93 in    
Wind  
Wind Speed 1 mph (SSW)    
Max Wind Speed 9 mph    
Max Gust Speed -    
Visibility 9 miles    
Events      
Averages and records for this station are not official NWS values.
T = Trace of Precipitation, MM = Missing Value Source: NWS Daily Summary

Daily Weather History Graph

Daily Weather History Graph

Search for Another Location

Airport or City:

Trip Planner

Search our weather history database for the weather conditions in past years. The results will help you decide how hot, cold, wet, or windy it might be!

Date:

Astronomy

Jul. 22, 2013 Rise Set
Actual Time 5:57 AM EDT 8:23 PM EDT
Civil Twilight 5:26 AM EDT 8:54 PM EDT
Nautical Twilight 4:48 AM EDT 9:31 PM EDT
Astronomical Twilight 4:06 AM EDT 10:13 PM EDT
Moon 8:09 PM EDT (7/22) 5:50 AM EDT (7/22)
Length of Visible Light 15h 27m
Length of Day
14h 26m
Full, 100% of the Moon is Illuminated
Jul 22
Full
Jul 22
Full
Jul 29
Last Quarter
Aug 6
New
Aug 14
First Quarter

Hourly Weather History & Observations

Time (EDT) Temp. Heat Index Dew Point Humidity Pressure Visibility Wind Dir Wind Speed Gust Speed Precip Events Conditions
12:09 AM 75.4 °F - 75.4 °F 100% 29.96 in 10.0 mi Calm Calm - N/A   Clear
12:29 AM 75.4 °F - 75.4 °F 100% 29.96 in 10.0 mi Calm Calm - N/A   Clear
12:49 AM 75.4 °F - 75.4 °F 100% 29.97 in 10.0 mi Calm Calm - N/A   Clear
1:09 AM 76.1 °F - 76.1 °F 100% 29.97 in 10.0 mi Calm Calm - N/A   Mostly Cloudy
1:29 AM 75.9 °F - 75.9 °F 100% 29.96 in 10.0 mi SSE 3.5 mph - N/A   Mostly Cloudy
1:49 AM 76.1 °F - 76.1 °F 100% 29.96 in 10.0 mi South 4.6 mph - N/A   Overcast
2:09 AM 77.0 °F - 77.0 °F 100% 29.96 in 10.0 mi Calm Calm - N/A   Overcast
2:29 AM 76.1 °F - 76.1 °F 100% 29.96 in 10.0 mi Calm Calm - N/A   Mostly Cloudy
2:49 AM 75.9 °F - 75.9 °F 100% 29.96 in 10.0 mi Calm Calm - N/A   Mostly Cloudy
3:09 AM 76.1 °F - 76.1 °F 100% 29.95 in 10.0 mi Calm Calm - N/A   Scattered Clouds
3:29 AM 75.6 °F - 75.6 °F 100% 29.95 in 10.0 mi Calm Calm - N/A   Clear
3:49 AM 75.6 °F - 75.6 °F 100% 29.95 in 10.0 mi Calm Calm - N/A   Clear
4:09 AM 75.6 °F - 75.6 °F 100% 29.94 in 7.0 mi Calm Calm - N/A   Clear
4:29 AM 75.7 °F - 75.7 °F 100% 29.94 in 10.0 mi Calm Calm - N/A   Clear
4:49 AM 75.6 °F - 75.6 °F 100% 29.94 in 10.0 mi Calm Calm - N/A   Clear
5:09 AM 75.4 °F - 75.4 °F 100% 29.94 in 10.0 mi Calm Calm - N/A   Clear
5:29 AM 75.2 °F - 75.2 °F 100% 29.94 in 10.0 mi Calm Calm - N/A   Clear
5:45 AM 73.4 °F - 73.4 °F 100% 29.94 in 7.0 mi Calm Calm - N/A   Scattered Clouds
5:49 AM 74.3 °F - 74.3 °F 100% 29.94 in 7.0 mi Calm Calm - N/A   Clear
6:09 AM 73.9 °F - 73.9 °F 100% 29.94 in 5.0 mi Calm Calm - N/A   Clear
6:29 AM 75.4 °F - 75.4 °F 100% 29.94 in 7.0 mi Calm Calm - N/A   Clear
6:49 AM 76.3 °F - 76.3 °F 100% 29.94 in 7.0 mi Calm Calm - N/A   Clear
6:55 AM 77.0 °F - 77.0 °F 100% 29.94 in 7.0 mi Calm Calm - N/A   Mostly Cloudy
7:09 AM 77.0 °F - 77.0 °F 100% 29.94 in 7.0 mi Calm Calm - N/A   Clear
7:30 AM 76.6 °F - 76.6 °F 100% 29.95 in 7.0 mi Calm Calm - N/A   Clear
7:42 AM 76.3 °F - 76.3 °F 100% 29.95 in 7.0 mi Calm Calm - N/A   Clear
7:55 AM 77.0 °F - 77.0 °F 100% 29.96 in 10.0 mi Calm Calm - N/A   Mostly Cloudy
8:50 AM 80.6 °F 86.2 °F 75.2 °F 84% 29.96 in 10.0 mi Calm Calm - N/A   Mostly Cloudy
9:45 AM 82.4 °F 89.5 °F 75.2 °F 79% 29.96 in 10.0 mi Calm Calm - N/A   Mostly Cloudy
10:55 AM 86.0 °F 95.1 °F 75.2 °F 70% 29.95 in 10.0 mi Calm Calm - N/A   Mostly Cloudy
11:50 AM 86.2 °F 95.1 °F 74.8 °F 69% 29.95 in 10.0 mi Calm Calm - N/A   Mostly Cloudy
11:53 AM 86.0 °F 95.1 °F 75.2 °F 70% 29.95 in 10.0 mi Calm Calm - N/A   Mostly Cloudy
12:10 PM 85.5 °F 93.8 °F 74.7 °F 70% 29.95 in 10.0 mi Calm Calm - N/A   Mostly Cloudy
12:17 PM 86.7 °F 95.5 °F 74.7 °F 67% 29.95 in 10.0 mi Calm Calm - N/A   Mostly Cloudy
12:50 PM 86.0 °F 95.1 °F 75.2 °F 70% 29.93 in 10.0 mi Calm Calm - N/A   Mostly Cloudy
1:45 PM 87.8 °F 95.6 °F 73.4 °F 62% 29.92 in 10.0 mi SSW 3.5 mph - N/A   Mostly Cloudy
2:50 PM 89.6 °F 102.2 °F 77.0 °F 66% 29.90 in 10.0 mi WSW 5.8 mph - N/A   Mostly Cloudy
3:50 PM 89.6 °F 98.2 °F 73.4 °F 59% 29.87 in 10.0 mi SSW 9.2 mph - N/A   Scattered Clouds
4:50 PM 91.4 °F 102.5 °F 75.2 °F 59% 29.85 in 10.0 mi SW 5.8 mph - N/A   Scattered Clouds
5:53 PM 89.6 °F 99.8 °F 75.2 °F 62% 29.83 in 10.0 mi WSW 5.8 mph - N/A   Scattered Clouds
6:53 PM 86.0 °F 95.1 °F 75.2 °F 70% 29.83 in 10.0 mi SSW 8.1 mph - N/A   Scattered Clouds
7:53 PM 84.2 °F 90.9 °F 73.4 °F 70% 29.83 in 10.0 mi South 6.9 mph - N/A   Mostly Cloudy
8:53 PM 82.4 °F 89.5 °F 75.2 °F 79% 29.83 in 10.0 mi South 6.9 mph - N/A   Mostly Cloudy
10:51 PM 79.9 °F - 76.1 °F 88% 29.82 in 10.0 mi SSW 4.6 mph - N/A   Clear
11:11 PM 79.7 °F - 76.3 °F 89% 29.82 in 10.0 mi South 4.6 mph - N/A   Scattered Clouds
11:31 PM 79.7 °F - 76.8 °F 91% 29.82 in 10.0 mi South 4.6 mph - N/A   Mostly Cloudy